sat.trackr.live / text

‹ back to catalog

STARLINK-1263

NORAD 45405 · 2020-019AX

PAYLOAD ACTIVE UNKNOWN

§ Identity

Operator
Country
US
Launch date
2020-03-18
Launch site
AFETR
Launch vehicle
Mass (kg)
RCS (m²)

Purposes: comms

External: N2YO · Heavens-Above · Gunter

§ Orbital elements

Epoch: 2026-09-19T17:26:32.744832Z

Period
93.26 min
Inclination
53.1513°
Eccentricity
0.0003696
Mean motion
15.44147773 rev/d
Perigee alt
431.4 km
Apogee alt
436.4 km
Semi-major
6,812.0 km
B*
8.5207e-4
RAAN
300.0224°
Arg perigee
46.2089°
Mean anomaly
313.9223°
Rev number
35,979

§ Raw data

STARLINK-12631 45405U 20019AX  26262.72676788  .00039435  00000+0  85207-3 0  99972 45405  53.1513 300.0224 0003696  46.2089 313.9223 15.44147773359791

JSON: /api/v1/satellites/45405 · /tle

For live sub-satellite position, see the globe view (requires WebGL).

§ Visibility from observer

Set your observer location to see the next 7 days of passes ≥ 10°. The values pass through the URL so the page stays shareable.

No JS? Fill the form by hand. The geolocation button needs JavaScript.